Regional Weather Roundup
Issued by NWS

Home | Current Version | Previous Version | Graphics & Text | Print | Product List | Glossary On
Versions: 1 2 3 4 5 6 7 8 9 10 11 12 13 14 15 16 17 18 19 20 21 22 23 24 25 26 27 28 29 30 31 32 33 34 35 36 37 38 39 40 41 42 43 44 45 46 47 48 49 50
000
ASUS45 KCYS 041110
RWRWY

WYOMING REGIONAL WEATHER ROUNDUP
NATIONAL WEATHER SERVICE CHEYENNE WY
400 AM MST WED MAR 04 2015

NOTE:  "FAIR" INDICATES FEW OR NO CLOUDS BELOW 12,000 FEET
WITH NO SIGNIFICANT WEATHER AND/OR OBSTRUCTIONS TO VISIBILITY.

WYZ001-041200-
YELLOWSTONE NATIONAL PARK

CITY           SKY/WX    TMP DP  RH WIND       PRES   REMARKS
LK YELLOWSTONE   N/A    -18 -24  74 CALM      29.94S
W YELLOWSTONE  NOT AVBL

$$
WYZ002>013-054>058-071-098>099-041200-
NORTHERN WYOMING

CITY           SKY/WX    TMP DP  RH WIND       PRES   REMARKS
JACKSON        FAIR       5   0  78 N5        29.99R WCI  -4
CODY           FAIR       1  -6  71 S3        30.05R
GREYBULL       FAIR       0  -4  83 S3        30.15R
WORLAND        FAIR       1  -5  75 SE9       30.11S WCI -14
SHERIDAN       CLOUDY     9  -4  55 NW18      30.10R WCI -10
BUFFALO        FAIR       6  -9  50 N6        30.02R WCI  -4
GILLETTE       FAIR       1  -7  68 W12       30.05R WCI -16
HULETT         FAIR       3  -2  78 W7        30.04R WCI  -9
NEWCASTLE      FAIR       5  -2  72 N8        30.06S WCI  -8

$$
WYZ014>020-022>026-101>103-041200-
CENTRAL WYOMING

CITY           SKY/WX    TMP DP  RH WIND       PRES   REMARKS
BIG PINEY      FAIR       5  -2  72 E7        29.94R WCI  -7
PINEDALE       FAIR      -8 -11  84 E5        29.95R WCI -19
DUBOIS         FAIR      -8 -13  77 NW10      29.91S FOG     WCI -26
LANDER         FAIR       1  -7  68 CALM      30.02S
RIVERTON       FAIR      -4  -9  79 MISG      30.04R
CASPER         FAIR      -7 -12  79 W7        30.04S WCI -21
DOUGLAS        FAIR      -5  -9  83 N12       30.06S WCI -23

$$
WYZ021-027>030-104>119-041200-
SOUTHERN WYOMING

CITY           SKY/WX    TMP DP  RH WIND       PRES   REMARKS
EVANSTON       FAIR      10   7  87 SW9       29.94S WCI  -3
FORT BRIDGER   CLOUDY    16  13  86 W12       29.96R WCI   3
ROCK SPRINGS   LGT SNOW   0  -4  83 E7        29.97S FOG     WCI -13
DIXON          FAIR       5   2  86 SW3       30.00R
RAWLINS        FAIR     -13 -17  82 N8        29.96R WCI -30
SARATOGA       CLOUDY     3   0  85 SW5       29.95R WCI  -6
LARAMIE        CLOUDY     1  -3  83 CALM      29.90R
CHEYENNE       FAIR       2  -4  76 W3        29.96R
TORRINGTON     CLOUDY     8   0  69 NW10      30.09R WCI  -6
PINE BLUFFS    FAIR       3   1  92 W3        30.03R

$$



USA.gov is the U.S. government's official web portal to all federal, state and local government web resources and services.